This demonstration page uses our WeatherBlox Daily Observations layout. Learn more.

Left ArrowRight Arrow

Hourly Observations for April 23, 2021

Temp ( °F °C ) Dew Point ( °F °C ) Humidity (%) Winds ( mph kmh ) Pressure ( in mb ) Visibility ( mi km ) Precip ( " mm )
12:15 am 00:15 Partly Cloudy 44 6.5 35 1.6 71 71 S 18 30 29.86 1011 10 16 N/A
12:35 am 00:35 Clear 43 6.2 35 1.7 73 73 S 20 31 29.86 1011 10 16 N/A
12:55 am 00:55 Clear 43 6.2 36 2 75 75 S 17 28 29.86 1011 10 16 N/A
1:15 am 01:15 Clear 43 6 36 2.1 76 76 S 17 28 29.86 1011 10 16 N/A
1:35 am 01:35 Partly Cloudy 42 5.8 36 2.1 77 77 S 18 30 29.86 1011 10 16 N/A
1:55 am 01:55 Mostly Cloudy 44 6.4 37 2.6 77 77 S 17 28 29.85 1011 10 16 N/A
2:15 am 02:15 Cloudy 44 6.5 37 2.8 77 77 S 21 33 29.84 1011 10 16 N/A
2:35 am 02:35 Mostly Cloudy 44 6.7 38 3.2 79 79 S 18 30 29.84 1011 10 16 N/A
2:55 am 02:55 Cloudy 45 7 38 3.5 79 79 S 17 28 29.83 1010 10 16 N/A
3:15 am 03:15 Cloudy 44 6.5 38 3.2 80 80 S 17 28 29.82 1010 10 16 N/A
3:35 am 03:35 Cloudy 43 6.3 38 3.2 81 81 S 14 22 29.83 1010 10 16 N/A
3:55 am 03:55 Cloudy 43 5.9 38 3.1 82 82 S 13 20 29.83 1010 10 16 N/A
4:15 am 04:15 Cloudy 42 5.8 38 3.2 84 84 S 13 20 29.83 1010 10 16 N/A
4:35 am 04:35 Cloudy 43 6.2 38 3.6 84 84 S 13 20 29.83 1010 10 16 N/A
4:55 am 04:55 Mostly Cloudy 43 5.9 38 3.5 85 85 SSW 10 17 29.83 1010 10 16 N/A
5:15 am 05:15 Partly Cloudy 42 5.3 38 3.2 86 86 S 7 11 29.83 1010 10 16 N/A
5:35 am 05:35 Clear 40 4.6 37 2.7 88 88 S 5 7 29.84 1011 10 16 N/A
5:55 am 05:55 Clear 39 4.1 37 2.6 90 90 S 6 9 29.85 1011 10 16 N/A
6:15 am 06:15 Clear 39 4 37 2.6 91 91 S 5 7 29.85 1011 10 16 N/A
6:35 am 06:35 Clear 38 3.6 36 2.4 92 92 S 5 7 29.85 1011 10 16 N/A
6:55 am 06:55 Partly Cloudy 37 3 35 1.9 93 93 S 6 9 29.86 1011 10 16 N/A
7:15 am 07:15 Partly Cloudy 38 3.1 36 2.2 94 94 S 3 6 29.87 1011 10 16 N/A
7:35 am 07:35 Partly Cloudy 39 3.8 37 2.8 93 93 S 7 11 29.87 1011 10 16 N/A
7:55 am 07:55 Sunny 41 4.8 39 3.7 93 93 S 8 13 29.87 1011 10 16 N/A
8:15 am 08:15 Mostly Cloudy 43 6 41 4.8 92 92 SSW 9 15 29.86 1011 10 16 N/A
8:35 am 08:35 Cloudy 45 7.4 42 5.8 90 90 SSW 9 15 29.86 1011 10 16 N/A
8:55 am 08:55 Cloudy 47 8.3 43 6.1 86 86 SW 12 19 29.85 1011 10 16 N/A
9:15 am 09:15 Cloudy 48 9.1 43 6.2 82 82 SSW 10 17 29.84 1011 10 16 N/A
9:35 am 09:35 Cloudy 50 9.8 43 6.2 79 79 SW 13 20 29.82 1010 10 16 N/A
9:55 am 09:55 Mostly Cloudy 51 10.4 44 6.5 77 77 SW 9 15 29.82 1010 10 16 N/A
10:15 am 10:15 Partly Cloudy 52 11 43 6.3 73 73 SW 6 9 29.82 1010 10 16 N/A
10:35 am 10:35 Sunny 53 11.4 43 6.3 71 71 WSW 5 7 29.82 1010 10 16 N/A
10:55 am 10:55 Sunny 53 11.6 43 6.1 69 69 N N/A 29.82 1010 10 16 N/A
11:15 am 11:15 Sunny 54 12.1 42 5.7 65 65 N N/A 29.81 1010 10 16 N/A
11:35 am 11:35 Sunny 55 12.7 42 5.8 63 63 N N/A 29.82 1010 10 16 N/A
11:55 am 11:55 Sunny 56 13.1 42 5.6 61 61 N N/A 29.82 1010 10 16 N/A
12:15 pm 12:15 Sunny 57 14 42 5.6 57 57 N N/A 29.81 1009 10 16 N/A
12:35 pm 12:35 undefined N/A N/A N/A undefined N/A N/A N/A N/A
12:55 pm 12:55 Sunny 60 15.5 43 5.9 53 53 SE 3 6 29.79 1009 10 16 0.01 0.25
1:15 pm 13:15 Sunny 60 15.6 42 5.3 51 51 N N/A 29.77 1008 10 16 N/A
1:35 pm 13:35 Sunny 62 16.6 42 5.4 48 48 E 5 7 29.77 1008 10 16 N/A
1:55 pm 13:55 Sunny 62 16.6 40 4.4 45 45 E 6 9 29.76 1008 10 16 N/A
2:15 pm 14:15 Partly Cloudy 63 17.4 41 5.2 45 45 E 6 9 29.75 1007 10 16 N/A
2:35 pm 14:35 Partly Cloudy 62 16.7 40 4.4 44 44 ENE 6 9 29.76 1008 10 16 N/A
2:55 pm 14:55 Partly Cloudy 63 17.3 38 3.3 39 39 E 6 9 29.75 1007 10 16 N/A
3:15 pm 15:15 Partly Cloudy 63 17.3 38 3.6 40 40 ESE 9 15 29.75 1007 10 16 N/A
3:35 pm 15:35 Partly Cloudy 65 18.1 38 3.5 38 38 E 7 11 29.74 1007 10 16 N/A
3:55 pm 15:55 Mostly Cloudy 64 17.8 38 3.1 38 38 E 9 15 29.75 1007 10 16 N/A
4:15 pm 16:15 Mostly Cloudy 63 17.4 37 2.8 38 38 E 3 6 29.75 1007 10 16 N/A
4:35 pm 16:35 Mostly Cloudy 62 16.9 37 2.6 39 39 ENE 8 13 29.75 1008 10 16 N/A
4:55 pm 16:55 Mostly Cloudy 65 18.5 38 3.1 36 36 E 9 15 29.74 1007 10 16 N/A
5:15 pm 17:15 Partly Cloudy 64 17.9 37 2.6 36 36 E 13 20 29.74 1007 10 16 N/A
5:35 pm 17:35 Partly Cloudy 63 17.1 35 1.9 36 36 E 7 11 29.75 1008 10 16 N/A
5:55 pm 17:55 Partly Cloudy 64 17.6 37 2.6 37 37 ENE 7 11 29.75 1007 10 16 N/A
6:15 pm 18:15 Partly Cloudy 64 17.7 37 2.5 36 36 E 13 20 29.76 1008 10 16 N/A
6:35 pm 18:35 Sunny 63 17.2 36 2.2 37 37 E 12 19 29.76 1008 10 16 N/A
6:55 pm 18:55 Sunny 63 17.1 34 0.9 34 34 NE 12 19 29.76 1008 10 16 N/A
7:15 pm 19:15 Partly Cloudy 61 16.2 37 2.8 41 41 E 10 17 29.77 1008 10 16 N/A
7:35 pm 19:35 Sunny 59 15 39 3.9 48 48 E 7 11 29.78 1008 10 16 N/A
7:55 pm 19:55 Sunny 58 14.7 38 3.3 47 47 E 6 9 29.79 1009 10 16 N/A
8:15 pm 20:15 Sunny 57 13.7 38 3.1 49 49 ENE 7 11 29.80 1009 10 16 N/A
8:35 pm 20:35 Clear 54 12.2 37 2.6 52 52 ENE 3 6 29.81 1010 10 16 N/A
8:55 pm 20:55 Clear 53 11.5 37 2.6 55 55 NNE 5 7 29.85 1011 10 16 N/A
9:15 pm 21:15 Clear 49 9.2 35 1.8 60 60 N 15 24 29.89 1012 10 16 N/A
9:35 pm 21:35 Clear 52 11.1 38 3.6 60 60 NNE 16 26 29.89 1012 10 16 N/A
9:55 pm 21:55 Clear 51 10.3 38 3.4 63 63 NNE 15 24 29.92 1013 10 16 N/A
10:15 pm 22:15 Clear 50 9.8 37 2.8 62 62 NE 15 24 29.93 1014 10 16 N/A
10:35 pm 22:35 Clear 47 8.6 37 2.6 66 66 NNE 10 17 29.95 1014 10 16 N/A
10:55 pm 22:55 Clear 47 8.2 37 2.9 70 70 NNE 12 19 29.96 1015 10 16 N/A
11:15 pm 23:15 Clear 46 7.5 37 3 73 73 NNE 12 19 29.98 1015 10 16 N/A
11:35 pm 23:35 Clear 44 6.9 37 2.6 74 74 NNE 16 26 30.00 1016 10 16 N/A
11:55 pm 23:55 Clear 43 6.1 36 2.3 77 77 NNE 17 28 30.01 1016 10 16 N/A

Powered by AerisWeather